STARLINK-34225

Last updated on Thu Jul 03 2025 00:02:07 GMT+0000 (Coordinated Universal Time)

1 64414U 25129C 25183.58335648 -.01650647 00000+0 -16730-1 0 9997 2 64414 69.9998 351.5706 0003718 278.7925 5.3324 15.68058893 3684
UTC large
Height (km)
Speed (km/s)
/
Latitude / Longitude
Inclination (degrees)
Orbital Period (minutes)
Azimuth
Elevation
Range (km)
Doppler Factor

Next 0 passes for location: London (51.5072 / 0.1276)

Sorry there are no passes over London.